Voltar ao catálogo

ONEWEB-0086

AtivoComunicaçõesPO
NORAD 45456·PAYLOAD·🇬🇧 United Kingdom

Lançado Mar 21, 2020 de Baikonur Cosmodrome

Loading…

Próximas Passagens (próximas 24 horas)

TLE

AtualizadoSource: CelesTrak SupGP

Época: Sep 15, 2026, 04:33 UTC

1 45456C 20020AJ  26258.18972639  .00002310  00000+0  65239-2 0  2586
2 45456  87.8987   3.1756 0002120  81.5753 315.7720 13.11418190    14

Acompanhe ONEWEB-0086 em tempo real com AllMySat

Download on the App Store